Погода Аксаково

Погода Аксаково : погода сейчас, прогноз погоды и архив. Всё, что Вы хотите узнать о погоде Аксаково!

Поиск расширенной информации на нашем сайте:

Другие новости

Новости СМИ2

Главная страница сайта

Новости сайта

03.07.2017

Напоминаем, что на нашем специализированном сайте Метеоцентр.Азия вы можете получить высокодетализированные автоматические прогнозы погоды по пунктам России, СНГ и мира в авиационном формате (включающие направление и скорость ветра, видимость, явления погоды, количество и форму облачности, нижнюю и верхнюю границу облачности).


Погода Аксаково - сегодня

Время (UTC), дата Ветер
(°,м/с) 
Видим.   Явления Облачность Т
(°С)
Тd
(°С)
f(%) Тe
(°С)
Pmin
(гПа)
dP
(гПа)
Po
(мм)
O2
(г/м3)
Тmin Tmax R s Состояние
почвы
09 14.08.18 210 (ЮЗ) 20000 м    9/5 600 м кучево-дожд., средняя 
[Cb calv|Ac und]
+20.8 +13.5 63 +28  1008.7  -0.3  727  269           
18 14.08.18 320 (СЗ) 10 км  {гроза}  ясно 
+12.7 +9.7 82 +13  1013  1.8  729  279           
21 14.08.18 260 (З) 10 км    ясно 
+9.9 +7.8 87 +9  1013.6  0.2  729  282           
00 15.08.18 300 (СЗ) 10 км    ясно 
+8.9 +7.2 89 +10  1014.7  0.9  730  284           
06 15.08.18 320 (СЗ) 20000 м    1/1 600 м 
[Cu hum]
+18.6 +8.6 52 +19  1015.6  0.8  732  274           
09 15.08.18 340 (С) 5{10}  20000 м    9/9 600 м 
[Cu med, cong]
+20.3 +6.6 41 +20  1015.8  0.4  732  273           
12 15.08.18 340 (С) 20000 м    9/9 600 м кучево-дожд. 
[Cb cap]
+21.2 +7.4 41 +21  1016.1  0.4  732  273           
18 15.08.18 тихо ()   10 км    ясно 
+13.9 +7.4 65 +14  1018.3  0.5  733  280           
21 15.08.18 220 (ЮЗ) 10 км    ясно 
+12.7 +7.4 70 +13  1018.7  0.2  733  281           
00 16.08.18 200 (Ю) 10 км    ясно 
+11.6 +6.7 72 +11  1018.9  733  282           
06 16.08.18 250 (З) 7-10{10}  20000 м    4/0 средняя, верхняя 
[Ac lent|Ci fib]
+23 +5.4 32 +23  1016.8  -0.4  733  271           
09 16.08.18 240 (ЮЗ) 7-11{11}  20000 м    8/3 600 м средняя, верхняя 
[Cu med, cong|Ac lent|Ci fib]
+26 +7.1 30 +26  1014.9  -1.5  732  268           
18 16.08.18 240 (ЮЗ) 10 км    4/0 верхняя 
[Ci sp]
+21.1 +8.7 45 +21  1013.3  730  272           
21 16.08.18 200 (Ю) 2{11}  10 км    9/9 600 м 
[Sc]
+18 +13.5 75 +26  1013.5  0.1  730  273           
00 17.08.18 200 (Ю) 10 км  в посл. час ливневой дождь  9/9 300 м кучево-дожд. 
[Cb cap]
+16.4 +14.7 90 +27  1013.8  730  274           
03 17.08.18 360 (С) 20000 м    10/10 300 м кучево-дожд. 
[Cb cap]
+15.8 +13.6 87 +23  1015.4  1.5  731  276  +15.8      влажная 
06 17.08.18 010 (С) 20000 м    10/10 300 м кучево-дожд. 
[Cb cap]
+15.4 +11 75 +18  1016.7  1.2  732  277  +15.2         
09 17.08.18 010 (С) 20000 м    10/10 300 м кучево-дожд. 
[Cb cap]
+16.2 +10.1 67 +18  1017.2  0.5  732  277           
12 17.08.18 010 (С) 20000 м    9/9 300 м кучево-дожд., верхняя 
[Cb cap|Ci fib]
+17.2 +8.9 58 +17  1016.9  0.1  732  276           
18 17.08.18 030 (СВ) 10 км    8/0 средняя, верхняя 
[Ac lent|Ci fib]
+10.6 +7.1 79 +11  1018.2  733  283           
21 17.08.18 070 (В) 10 км    ясно 
+7.5 +5.7 88 +8  1018.6  733  286           
00 18.08.18 050 (СВ) 10 км    4/0 средняя 
[Ac trans]
+5.9 +4.7 92 +6  1019.5  0.7  733  288           
03 18.08.18 040 (СВ) 20000 м    6/0 средняя, верхняя 
[Ac trans|Cs]
+7.4 +6.2 92 +7  1020.2  0.9  734  287  +5.4        сухая 
06 18.08.18 020 (С) 20000 м    6/6 600 м кучево-дожд. 
[Cb cap]
+14.6 +7.3 62 +14  1019.1  0.1  734  279           
09 18.08.18 020 (С) 6{11}  20000 м    9/9 600 м кучево-дожд. 
[Cb cap]
+15.6 +5.2 50 +15  1018.3  -0.6  733  279           
Время (UTC), дата Ветер
(°,м/с) 
Видим.   Явления Облачность Т
(°С)
Тd
(°С)
f(%) Тe
(°С)
Pmin
(гПа)
dP
(гПа)
Po
(мм)
O2
(г/м3)
Тmin Tmax R s Состояние
почвы

Для получения пояснительной информации подведите курсор к названию столбца.

ПОГОДА Аксаково - архив

Всё, что Вы хотите узнать о погоде Аксаково - удобно и подробно!

Выберите нужную дату (начиная с 1 января 2015* года) и нажмите кнопку "Найти".
Будут отображены архивные сводки погоды по пункту Аксаково, начиная с указанной даты.


Отображать данные в формате CSV (для использования в таблицах Excel)


Внимание! Наш архив погоды предназначен исключительно для личного некоммерческого использования в познавательных целях. Если Вам необходимы официальные справки о состоянии погоды (для производственных, юридических, коммерческих и т.п. целей), обращайтесь в органы Росгидромета.

*Примечание: данная дата относится к архиву по метеостанциям СССР (Россия, СНГ, Балтия).
Архив по метеостанциям Зарубежной Европы и Азии (кроме Китая) хранится 10 дней, по другим регионам земного шара (Китай, Африка, Америка, Австралия, Океания) - 1 день.

Аксаково - район местоположения метеостанции


Название, широта, долгота, высота метеостанции:
Аксаково 54°ш. 54.2°д. 348 м над ур. моря [Российская Федерация]

Дополнительная информация

В oтличие oт бoльшинства пoгoдных сайтoв мы публикуем пoдрoбную метеoинфoрмацию в детальнoм прoфессиoнальнoм фoрмате.

Характеристики температуры и влажнoсти вoздуха измеряются на высoте 2 м в тени вдали oт зданий и деревьев.
Скoрoсть ветра измеряется на высoте 10 м (на урoвне рoста челoвека скoрoсть ветра ниже в 1.5-2 раза). Если метеoстанция нахoдится в гoрoде или в лесу, тo скoрoсть ветра занижена на 2-4 м/с пo сравнению с oткрытым местoм. Скoрoсть ветра над акватoриями крупных рек и oзёр, а также на вершинах хoлмoв на 2-5 м/с выше, чем в oбычных услoвиях.
Атмoсфернoе давление в разных тoчках местнoсти мoжет значительнo oтличаться oт давления на метеoстанции, в зависимoсти oт услoвий рельефа (при пoдъёме на 10 м давление пoнижается примернo на 1 мм рт.ст.).